Location: Champs
(48.8539°N, 2.6040°E)
Time: 04:05:59
(UTC+00:00)

Cosmos 1953 - Pass Details

Date: 26 October 2021
Orbit: 537 x 557 km, 82.5° (Epoch: 04 December)

Event Time Altitude Azimuth Distance (km) Brightness Sun altitude
Rises 03:19:35 0° 358° (N) 2,742 6.1 -31.2°
Enters shadow 03:20:28 - 1° (N) 2,400 5.8 -31.0°
Exits shadow 03:26:44 26° 104° (ESE) 1,107 4.3 -30.0°
Drops below altitude 10° 03:29:08 10° 135° (SE) 1,814 5.3 -29.7°
Sets 03:31:28 0° 146° (SSE) 2,698 6.1 -29.3°
